Location: Tel Aviv
(32.0670°N, 34.7670°E)
Time: 07:34:26
(UTC+03:00)

AO-109 - Visible Passes

Search period start: 29 March 2023 00:00
Search period end: 08 April 2023 00:00
Orbit: 442 x 483 km, 60.7° (Epoch: 28 March)

Date Brightness Start Highest point End Pass type
(mag) Time Alt. Az. Time Alt. Az. Time Alt. Az.
02 Apr ? 20:49:08 10° N 20:49:50 13° NNE 20:49:50 13° NNE visible
03 Apr ? 20:16:29 10° NNE 20:17:54 13° NE 20:17:54 13° NE visible
04 Apr ? 21:18:29 10° NW 21:19:51 22° NW 21:19:51 22° NW visible
05 Apr ? 20:45:00 10° NNW 20:47:57 62° NNW 20:47:57 62° NNW visible
06 Apr ? 20:11:32 10° NNW 20:14:58 55° NE 20:16:05 36° ESE visible
07 Apr ? 19:38:08 10° NNW 19:41:21 35° NE 19:44:16 12° ESE visible
07 Apr ? 21:16:45 10° W 21:17:51 11° WSW 21:18:09 11° WSW visible
